Holbrook, NY

3:47 PM EST on February 10, 2016 (GMT -0500)
Long Island Mac Arthur

Weather History for KISP - October, 2013

Change the Weather History Date:

Saturday, October 5, 2013

  Actual Average Record
Temperature  
Mean Temperature 70 °F 58 °F  
Max Temperature 76 °F 67 °F 83 °F (2002)
Min Temperature 64 °F 49 °F 36 °F (1996)
Degree Days  
Heating Degree Days 0 8  
Month to date heating degree days 0 35  
Since 1 July heating degree days 83 112  
Cooling Degree Days 5 1  
Month to date cooling degree days 18 5  
Year to date cooling degree days 949 782  
Growing Degree Days 20 (Base 50)    
Moisture  
Dew Point 62 °F    
Average Humidity 79    
Maximum Humidity 93    
Minimum Humidity 64    
Precipitation  
Precipitation 0.00 in 0.13 in 1.80 in (1995)
Month to date precipitation T 0.61  
Year to date precipitation 30.39 35.33  
Snow  
Snow 0.00 in 0.00 in - ()
Month to date snowfall 0.0 0.0  
Since 1 July snowfall 0.0 0.0  
Snow Depth 0.00 in    
Sea Level Pressure  
Sea Level Pressure 30.05 in    
Wind  
Wind Speed 6 mph (East)    
Max Wind Speed 10 mph    
Max Gust Speed 13 mph    
Visibility 7 miles    
Events      
T = Trace of Precipitation, MM = Missing Value Source: NWS Daily Summary

Daily Weather History Graph

Daily Weather History Graph

Search for Another Location

Airport or City:

Trip Planner

Search our weather history database for the weather conditions in past years. The results will help you decide how hot, cold, wet, or windy it might be!

Date:

Astronomy

Oct. 05, 2013 Rise Set
Actual Time 6:53 AM EDT 6:27 PM EDT
Civil Twilight 6:25 AM EDT 6:54 PM EDT
Nautical Twilight 5:54 AM EDT 7:26 PM EDT
Astronomical Twilight 5:22 AM EDT 7:58 PM EDT
Moon 7:30 AM EDT (10/5) 6:44 PM EDT (10/5)
Length of Visible Light 12h 28m
Length of Day
11h 34m
New Moon, 0% of the Moon is Illuminated
Oct 5
New Moon
Oct 11
First Quarter
Oct 18
Full
Oct 26
Last Quarter
Nov 3
New

Hourly Weather History & Observations

Time (EDT) Temp. Dew Point Humidity Pressure Visibility Wind Dir Wind Speed Gust Speed Precip Events Conditions
12:43 AM 66.2 °F 62.6 °F 88% 30.01 in 4.0 mi Calm Calm - N/A   Partly Cloudy
12:56 AM 66.0 °F 64.0 °F 93% 30.02 in 3.0 mi Calm Calm - N/A   Mostly Cloudy
1:22 AM 66.2 °F 64.4 °F 94% 30.02 in 2.5 mi ENE 3.5 mph - N/A   Overcast
1:56 AM 64.9 °F 63.0 °F 93% 30.02 in 2.5 mi NNE 8.1 mph - N/A   Overcast
2:25 AM 64.4 °F 62.6 °F 94% 30.02 in 3.0 mi NE 6.9 mph - N/A   Overcast
2:56 AM 64.9 °F 63.0 °F 93% 30.01 in 3.0 mi NE 6.9 mph - N/A   Overcast
3:56 AM 64.0 °F 62.1 °F 93% 30.02 in 5.0 mi NE 6.9 mph - N/A   Overcast
4:56 AM 64.9 °F 62.1 °F 90% 30.03 in 6.0 mi NE 3.5 mph - N/A   Overcast
5:56 AM 64.0 °F 62.1 °F 93% 30.04 in 3.0 mi NNE 6.9 mph - N/A   Overcast
6:56 AM 64.0 °F 61.0 °F 90% 30.05 in 4.0 mi NE 9.2 mph - N/A   Overcast
7:56 AM 64.0 °F 61.0 °F 90% 30.06 in 4.0 mi NE 6.9 mph - N/A   Overcast
8:56 AM 64.9 °F 61.0 °F 87% 30.08 in 6.0 mi NNE 9.2 mph - N/A   Overcast
9:56 AM 66.9 °F 60.1 °F 79% 30.08 in 10.0 mi ENE 4.6 mph - N/A   Overcast
10:56 AM 70.0 °F 61.0 °F 73% 30.08 in 10.0 mi Variable 5.8 mph - N/A   Overcast
11:56 AM 71.1 °F 61.0 °F 70% 30.08 in 10.0 mi NNE 6.9 mph - N/A   Overcast
12:56 PM 72.0 °F 61.0 °F 68% 30.06 in 8.0 mi North 10.4 mph - N/A   Mostly Cloudy
1:56 PM 71.1 °F 61.0 °F 70% 30.05 in 8.0 mi Variable 5.8 mph - N/A   Mostly Cloudy
2:17 PM 73.4 °F 60.8 °F 65% 30.04 in 10.0 mi Calm Calm - N/A   Scattered Clouds
2:56 PM 73.0 °F 62.1 °F 68% 30.03 in 10.0 mi Calm Calm - N/A   Scattered Clouds
3:56 PM 75.9 °F 62.1 °F 62% 30.04 in 10.0 mi Calm Calm - N/A   Scattered Clouds
4:56 PM 71.1 °F 62.1 °F 73% 30.04 in 10.0 mi SSE 8.1 mph - N/A   Partly Cloudy
5:33 PM 68.0 °F 60.8 °F 78% 30.05 in 10.0 mi SSE 6.9 mph - N/A   Mostly Cloudy
5:56 PM 66.9 °F 61.0 °F 81% 30.06 in 10.0 mi SSE 5.8 mph - N/A   Mostly Cloudy
6:56 PM 66.0 °F 62.1 °F 87% 30.06 in 10.0 mi SE 6.9 mph - N/A   Mostly Cloudy
7:56 PM 64.9 °F 62.1 °F 90% 30.06 in 9.0 mi South 5.8 mph - N/A   Overcast
8:56 PM 64.9 °F 61.0 °F 87% 30.08 in 9.0 mi SE 8.1 mph - N/A   Overcast
9:56 PM 64.9 °F 61.0 °F 87% 30.08 in 8.0 mi SSE 6.9 mph - N/A   Overcast
10:56 PM 64.9 °F 62.1 °F 90% 30.08 in 8.0 mi SSE 5.8 mph - N/A   Overcast
11:56 PM 64.0 °F 62.1 °F 93% 30.09 in 7.0 mi SSE 6.9 mph - N/A   Overcast